Location: Newark
(63.1158°N, 8.1461°E)
Time: 09:13:23
(UTC+00:00)

Envisat - Pass Details

Date: 19 December 2019
Orbit: 764 x 766 km, 98.1° (Epoch: 21 January)

Event Time Altitude Azimuth Distance (km) Brightness Sun altitude
Rises 15:27:37 0° 126° (SE) 3,234 6.1 -8.7°
Reaches altitude 10° 15:30:04 10° 118° (ESE) 2,310 5.2 -9.0°
Maximum altitude 15:34:41 37° 53° (NE) 1,195 3.5 -9.4°
Drops below altitude 10° 15:39:20 10° 348° (NNW) 2,320 5.3 -9.8°
Sets 15:41:47 0° 340° (NNW) 3,250 6.1 -10.1°
